FW8512 Weather Reports


Display with metric or nautical units.
time (UTC)temp
F
wind
direction
speed
MPH
gust
MPH
rain 1hr
in
rain 24hr
in
rain mn
in
humidity
%
barometer
mb
20260906234549 64 287 5.0 11.0 0.00 1.27 0.93 55 1014.1
20260906233045 64 264 5.0 8.0 0.00 1.27 0.93 55 1014.1
20260906231541 64 32 4.0 8.0 0.00 1.27 0.93 55 1013.9
20260906230037 64 348 3.0 7.0 0.00 1.27 0.93 55 1014.1
20260906224536 64 42 6.0 10.0 0.00 1.27 0.93 54 1013.9
20260906223032 63 18 5.0 10.0 0.00 1.27 0.93 55 1014.0
20260906221527 63 29 1.0 6.0 0.00 1.27 0.93 53 1014.4
20260906220024 63 292 4.0 8.0 0.00 1.27 0.93 55 1014.6
20260906214523 61 278 4.0 8.0 0.00 1.27 0.93 58 1014.9
20260906213020 61 246 3.0 6.0 0.00 1.27 0.93 57 1014.9
20260906211512 60 256 1.0 5.0 0.00 1.27 0.93 58 1014.9
20260906210010 60 23 2.0 5.0 0.00 1.27 0.93 57 1014.9
20260906204508 60 224 4.0 7.0 0.00 1.27 0.93 57 1014.9
20260906203006 60 276 4.0 8.0 0.00 1.27 0.93 58 1014.8
20260906201504 60 255 4.0 7.0 0.00 1.27 0.93 59 1014.9
20260906200058 59 300 1.0 5.0 0.00 1.27 0.93 61 1015.1
20260906194555 59 275 1.0 4.0 0.00 1.27 0.93 62 1015.0
20260906193052 59 257 1.0 6.0 0.00 1.27 0.93 63 1015.2
20260906191551 59 295 1.0 6.0 0.00 1.27 0.93 63 1015.5
20260906190049 59 266 1.0 4.0 0.00 1.27 0.93 62 1015.7
20260906184554 59 32 0.0 4.0 0.00 1.27 0.93 63 1015.7
20260906183045 58 32 1.0 2.0 0.00 1.27 0.93 64 1016.1
20260906181543 58 29 2.0 9.0 0.00 1.27 0.93 63 1016.2
20260906180057 58 21 6.0 11.0 0.00 1.27 0.93 64 1016.0
20260906174539 58 53 9.0 14.0 0.00 1.27 0.93 64 1015.7
20260906173035 58 47 10.0 15.0 0.00 1.27 0.93 64 1015.7
20260906171531 57 41 11.0 17.0 0.00 1.27 0.93 65 1015.5
20260906170030 57 3 6.0 11.0 0.01 1.27 0.93 65 1016.6
20260906164526 57 32 10.0 14.0 0.01 1.28 0.93 65 1016.6
20260906163018 56 50 10.0 16.0 0.01 1.28 0.93 69 1016.4
20260906161519 55 33 12.0 20.0 0.02 1.28 0.93 71 1016.1
20260906160012 54 60 0.0 5.0 0.03 1.27 0.92 75 1017.2
20260906154517 54 266 1.0 3.0 0.03 1.27 0.92 74 1017.6
20260906153009 54 25 4.0 7.0 0.03 1.27 0.92 75 1017.1
20260906151505 54 340 4.0 6.0 0.02 1.26 0.91 76 1017.1
20260906150004 54 264 1.0 5.0 0.00 1.25 0.89 76 1017.6
20260906144505 54 300 4.0 9.0 0.01 1.25 0.89 80 1017.3
20260906143112 53 288 5.0 9.0 0.05 1.25 0.89 82 1017.5
20260906141559 53 305 3.0 8.0 0.11 1.25 0.89 84 1018.2
20260906140056 53 290 6.0 11.0 0.15 1.25 0.89 84 1018.4
20260906134554 53 249 5.0 11.0 0.20 1.26 0.88 84 1019.0
20260906133054 53 266 7.0 11.0 0.16 1.22 0.84 84 1019.1
20260906131549 53 265 7.0 10.0 0.10 1.15 0.78 83 1018.9
20260906130047 53 264 6.0 13.0 0.06 1.12 0.74 77 1018.6
20260906124545 53 264 6.0 11.0 0.00 1.11 0.68 75 1018.4
20260906123043 54 269 2.0 8.0 0.00 1.11 0.68 71 1017.9
20260906121543 53 4 6.0 9.0 0.00 1.11 0.68 73 1017.8
20260906120045 53 285 5.0 14.0 0.01 1.11 0.68 72 1017.9
20260906114537 53 338 6.0 12.0 0.08 1.13 0.68 79 1017.6
20260906113039 53 258 8.0 15.0 0.08 1.13 0.68 78 1018.2
20260906111535 53 6 7.0 15.0 0.08 1.13 0.68 78 1018.4
20260906110029 53 233 3.0 12.0 0.08 1.12 0.67 82 1018.7
20260906104534 53 237 9.0 14.0 0.04 1.07 0.60 82 1019.0
20260906103025 53 253 7.0 10.0 0.04 1.07 0.60 81 1017.5
20260906101522 54 258 3.0 6.0 0.04 1.07 0.60 79 1017.7
20260906100019 55 269 3.0 5.0 0.03 1.06 0.59 72 1017.9
20260906094534 55 266 5.0 12.0 0.00 1.03 0.56 71 1018.1
20260906093030 55 260 3.0 14.0 0.00 1.03 0.56 71 1018.0
20260906091515 55 3 14.0 21.0 0.02 1.03 0.56 71 1017.2
20260906090010 55 33 12.0 17.0 0.10 1.03 0.56 73 1017.0
20260906084506 55 62 14.0 24.0 0.14 1.03 0.56 80 1017.0
20260906083011 54 42 18.0 30.0 0.27 1.03 0.56 82 1016.7
20260906081600 53 60 16.0 24.0 0.37 1.01 0.54 83 1017.4
20260906080107 53 136 9.0 15.0 0.33 0.93 0.46 82 1018.5
20260906074552 53 136 7.0 11.0 0.33 0.90 0.43 82 1018.9
20260906073048 53 135 2.0 8.0 0.26 0.77 0.30 81 1020.0
20260906071557 54 136 3.0 11.0 0.16 0.64 0.17 80 1019.6
20260906070041 54 136 9.0 14.0 0.13 0.60 0.13 80 1019.4
20260906064537 54 136 3.0 9.0 0.10 0.56 0.10 79 1019.5
20260906063035 54 136 6.0 15.0 0.11 0.51 0.04 78 1019.3
20260906061530 54 136 9.0 15.0 0.12 0.47 0.00 78 1019.5
20260906060033 54 136 7.0 11.0 0.15 0.47 0.00 79 1019.8
20260906054522 54 136 5.0 8.0 0.22 0.47 0.47 79 1020.0
20260906053019 54 136 4.0 7.0 0.22 0.40 0.40 75 1020.6
20260906051517 55 136 4.0 7.0 0.18 0.34 0.34 73 1020.7
20260906050016 55 136 6.0 9.0 0.17 0.33 0.31 71 1020.3
20260906044514 56 136 1.0 4.0 0.11 0.27 0.25 71 1020.4
20260906043007 56 136 2.0 5.0 0.04 0.20 0.18 69 1020.2
20260906041619 57 136 2.0 6.0 0.02 0.18 0.16 66 1019.9
20260906040002 57 136 2.0 13.0 0.00 0.16 0.14 64 1019.6
20260906034558 58 136 6.0 11.0 0.01 0.16 0.14 63 1019.0
20260906033056 58 136 6.0 11.0 0.01 0.16 0.14 63 1018.8
20260906031552 58 136 8.0 13.0 0.01 0.16 0.14 61 1018.6
20260906030050 59 136 6.0 11.0 0.01 0.16 0.14 62 1018.4
20260906024601 60 136 6.0 10.0 0.00 0.15 0.13 57 1018.3
20260906023047 61 136 6.0 11.0 0.00 0.15 0.13 54 1018.1
20260906021544 62 136 7.0 13.0 0.00 0.15 0.13 52 1017.7
20260906020047 62 136 7.0 13.0 0.00 0.15 0.13 51 1017.3
20260906014551 63 136 6.0 12.0 0.00 0.15 0.13 51 1017.3
20260906013041 64 136 6.0 10.0 0.00 0.15 0.13 50 1017.1
20260906011540 64 136 5.0 11.0 0.00 0.15 0.13 48 1017.2
20260906010035 65 136 8.0 14.0 0.00 0.15 0.13 46 1016.7
20260906004538 66 135 6.0 10.0 0.00 0.15 0.13 43 1016.6
20260906003045 67 135 6.0 11.0 0.00 0.15 0.13 43 1016.7
20260906001530 68 135 6.0 8.0 0.00 0.15 0.13 42 1016.7
20260906000027 68 135 3.0 6.0 0.00 0.15 0.13 42 1016.9